Weather History for Bangor, ME

Change the Weather History Date:

Tuesday, September 25, 2012

  Actual Average Record
Temperature  
Mean Temperature 52 °F 55 °F  
Max Temperature 67 °F 66 °F 88 °F (1930)
Min Temperature 37 °F 44 °F 27 °F (1944)
Degree Days  
Heating Degree Days 13 10  
Month to date heating degree days 164 153  
Since 1 July heating degree days 166 216  
Cooling Degree Days 0 0  
Month to date cooling degree days 11 21  
Year to date cooling degree days 395 315  
Growing Degree Days 2 (Base 50)    
Moisture  
Dew Point 44 °F    
Average Humidity 71    
Maximum Humidity 100    
Minimum Humidity 42    
Precipitation  
Precipitation 0.00 in 0.15 in 2.10 in (1991)
Month to date precipitation 4.62 3.09  
Year to date precipitation 28.91 29.34  
Snow  
Snow 0.00 in 0.00 in 0.00 in (2002)
Month to date snowfall 0.0 0.0  
Since 1 July snowfall 0.0 0.0  
Since 1 September snowfall 0.0 0.0  
Snow Depth 0.00 in    
Sea Level Pressure  
Sea Level Pressure 30.08 in    
Wind  
Wind Speed 5 mph (SSW)    
Max Wind Speed 21 mph    
Max Gust Speed 28 mph    
Visibility 10 miles    
Events Fog    
T = Trace of Precipitation, MM = Missing Value Source: NWS Daily Summary

Daily Weather History Graph

Daily Weather History Graph

Search for Another Location

Airport:

Trip Planner

Search our weather history database for the weather conditions in past years. The results will help you decide how hot, cold, wet, or windy it might be!

Date:

Astronomy

Sep. 25, 2012 Rise Set
Actual Time 6:26 AM EDT 6:26 PM EDT
Civil Twilight 5:57 AM EDT 6:55 PM EDT
Nautical Twilight 5:23 AM EDT 7:29 PM EDT
Astronomical Twilight 4:48 AM EDT 8:04 PM EDT
Moon 3:57 PM EDT (9/25) 1:33 AM EDT (9/25)
Length of Visible Light 12h 58m
Length of Day
11h 59m
Waxing Gibbous, 80% of the Moon is Illuminated
Sep 25
Waxing Gibbous
Sep 29
Full
Oct 8
Last Quarter
Oct 15
New
Oct 21
First Quarter

Hourly Weather History & Observations

Time (EDT) Temp. Windchill Dew Point Humidity Pressure Visibility Wind Dir Wind Speed Gust Speed Precip Events Conditions
12:53 AM 39.9 °F - 39.0 °F 97% 30.07 in 10.0 mi Calm Calm - N/A   Clear
1:53 AM 39.0 °F - 39.0 °F 100% 30.07 in 10.0 mi Calm Calm - N/A   Clear
2:53 AM 39.0 °F - 37.9 °F 96% 30.07 in 10.0 mi Calm Calm - N/A   Clear
3:53 AM 39.0 °F - 37.9 °F 96% 30.07 in 9.0 mi Calm Calm - N/A   Clear
4:53 AM 43.0 °F 40.3 °F 42.1 °F 97% 30.07 in 10.0 mi South 4.6 mph - N/A   Clear
5:53 AM 43.0 °F 41.3 °F 42.1 °F 97% 30.07 in 10.0 mi SSW 3.5 mph - N/A   Clear
6:53 AM 43.0 °F - 42.1 °F 97% 30.08 in 10.0 mi Calm Calm - N/A Fog Patches of Fog
7:53 AM 48.0 °F - 44.1 °F 86% 30.08 in 10.0 mi South 4.6 mph - N/A   Clear
8:53 AM 52.0 °F - 45.0 °F 77% 30.09 in 10.0 mi SSW 8.1 mph - N/A   Clear
9:53 AM 57.0 °F - 44.1 °F 62% 30.07 in 10.0 mi South 16.1 mph 23.0 mph N/A   Partly Cloudy
10:53 AM 60.1 °F - 43.0 °F 53% 30.07 in 10.0 mi SSW 16.1 mph 25.3 mph N/A   Scattered Clouds
11:53 AM 62.1 °F - 42.1 °F 48% 30.07 in 10.0 mi SSW 15.0 mph 21.9 mph N/A   Scattered Clouds
12:53 PM 64.0 °F - 43.0 °F 46% 30.06 in 10.0 mi WSW 12.7 mph 18.4 mph N/A   Scattered Clouds
1:53 PM 64.9 °F - 43.0 °F 45% 30.06 in 10.0 mi SSW 12.7 mph 20.7 mph N/A   Partly Cloudy
2:53 PM 66.2 °F - 42.8 °F 43% 30.05 in 10.0 mi SSW 15.0 mph - N/A   Partly Cloudy
3:53 PM 66.0 °F - 43.0 °F 43% 30.05 in 10.0 mi SSW 15.0 mph 20.7 mph N/A   Partly Cloudy
4:53 PM 64.9 °F - 43.0 °F 45% 30.06 in 10.0 mi SSW 11.5 mph 21.9 mph N/A   Clear
5:53 PM 62.1 °F - 46.9 °F 58% 30.07 in 10.0 mi South 9.2 mph - N/A   Clear
6:53 PM 59.0 °F - 48.0 °F 67% 30.08 in 10.0 mi South 10.4 mph - N/A   Partly Cloudy
7:53 PM 57.0 °F - 48.0 °F 72% 30.09 in 10.0 mi South 6.9 mph - N/A   Partly Cloudy
8:53 PM 55.9 °F - 51.1 °F 84% 30.09 in 10.0 mi South 9.2 mph - N/A   Scattered Clouds
9:53 PM 55.9 °F - 51.1 °F 84% 30.11 in 10.0 mi South 5.8 mph - N/A   Partly Cloudy
10:53 PM 54.0 °F - 52.0 °F 93% 30.11 in 10.0 mi South 5.8 mph - N/A   Partly Cloudy
11:53 PM 48.9 °F - 48.0 °F 97% 30.10 in 10.0 mi Calm Calm - N/A   Clear